STARLINK-36744, 67987

Orbit data source: Space-Track

STARLINK-36744, 67987 is a payload satellite owned by SpaceX/Seattle (US) in LEO that was launched on Fri, 27 Feb 2026 UTC via an FALCON 9 launch vehicle from the Air Force Eastern Test Range (AFETR). Payload-class satellites include a variety of spacecraft equipped with specific instruments for various scientific and technological missions. These include communications satellites like Starlink; space stations such as the ISS; scientific satellites like the Hubble; Earth observation satellites from companies like Planet Labs, Umbra, and HawkEye 360; GPS; miniature CubeSats for education and research; and military/defense satellites.

Loading next visibility...
Identifier
67987, 2026-039B
Orbit
LEO
Country
Flag of USUS
Related business
Manufacturer
SpaceX/Seattle
Mission
Operational Commercial Communications
Bus & Motor
STARLINK V2MO, Unknown motor
Mass
575 kg wet, ~530 kg dry
Launch date (UTC)
2026-02-27 (2 months ago)
Launch vehicle
FALCON 9
Launch site
Air Force Eastern Test Range (AFETR)
Object type
Payload
Rocket body
Debris
Shape & HBR
Box + 2 Pan, 17.7 m
Radar Cross Section
36.964 m²

Expand to show TLE details & history
Last TLE update: 14 hours ago

TLE from 14 hours ago
0 STARLINK-36744
1 67987U 26039B   26118.99857820  .00012564  00000-0  46581-3 0  9998
2 67987  42.9981 125.1485 0000455  36.2717 323.8165 15.27543245  9395
Epoch: 2026-04-28T23:57Z
TLE epoch observation values (Epoch: 2026-04-28T23:57:57.156Z)
Latitude
-0.00004°
Longitude
-91.30554°
Altitude
482.682 km
Speed
7.626 km/s
True Right ascension
08h 20m 35s
True Declination
0° 00' 00"
Sunlit
Object was in daylight at epoch
Visualization orbit readout
Latitude
Unknown
Longitude
Unknown
Altitude
Unknown
Speed
Unknown
Apparent Right ascension
Unknown
Apparent Declination
Unknown
Sunlit
N/A
Visualization observer readout
Local Sidereal Time
21:51:51
Azimuth
Unknown
Elevation
Unknown
Doppler factor
Unknown
Orbital elements
Apogee altitude
485.417 km
Perigee altitude
484.792 km
Semi-major axis
6,863.242 km
Eccentricity
0.00005
Inclination
42.9981°
RAAN
125.1485°
Arg. of periapsis
36.2717°
True anomaly
323.81342°
Mean anomaly
323.8165°
Eccentric anomaly
323.81496°
Mean motion
3.81724 °/min
Orbital period
94.31 mins
BSTAR
0.00046581
Loading maneuver chart data...
Computing Atmospheric mass density...
Loading historical data...
Loading historical data...
Loading historical data...
Loading historical data...
Loading historical data...
Loading historical data...
Loading historical data...

Documentation

Showing up to 5 results
|